www.pogodaiklimat.ru

Погода и климат >> Архив погоды >> Коморские Острова >> Морони


АРХИВ ПОГОДЫ в Морони

Время (UTC), дата Ветер
(напр.,м/с)
 
Видим.   Явления Облачность Т
(С)
Тd
(С)
f
(%)
Тe
(С)
Тes
(С)
Комфортность P
(гПа)
Po
(гПа)
Тmin
(С)
Tmax
(С)
R
(мм)
R24
(мм)
S
(см)
12 15.01 ЮВ 5 20 км гроза, ливневой дождь 10/10 600 м
[Cb cap Ac As]
+25.5 +24.1 92 +35 +35 очень
душно
1012.3 1008.0
15 15.01 штиль 0 30 км 8/8 600 м
[Cb cap Ac trans]
+26.3 +24.5 90 +37 +37 очень
душно
1012.0 1007.8
18 15.01 В 5 30 км 8/8 600 м
[Cb cap Ac trans]
+26.5 +22.9 81 +35 +35 очень
душно
1013.4 1009.1 +30.5
21 15.01 ЮВ 2 30 км 6/1 600 м
[Cu Sc Ac As Ci sp]
+26.0 +23.6 87 +35 +35 очень
душно
1013.8 1009.6
00 16.01 ЮВ 2 25 км 9/3 600 м
[Cu Sc Ac As Ci sp]
+25.4 +24.3 94 +35 +35 очень
душно
1012.4 1008.2
03 16.01 ЮВ 1 25 км 10/3 600 м
[Cu Sc Ac As Ci sp]
+25.5 +25.3 99 +37 +37 очень
душно
1013.3 1009.1
06 16.01 С 3 30 км 4/4 600 м
[Cu Sc]
+29.4 +25.4 79 +43 +49 опасность
перегрева
1014.2 1010.0 +24.5
09 16.01 СЗ 3 30 км 9/1 600 м
[Cb cap Ci sp]
+30.0 +25.9 79 +45 +59 опасность
перегрева
1012.8 1008.6
12 16.01 З 2 30 км {дождь} 6/6 600 м
[]
+30.0 +27.0 84 +47 +52 опасность
перегрева
1010.5 1006.4
15 16.01 СЗ 2 30 км 8/6 600 м
[Cu Sc As op]
+25.9 +22 +22 комфорт 1010.6 1006.5
18 16.01 В 3 30 км 4/3 600 м
[Cu Sc Ac trans Ci sp]
+27.2 +25.0 88 +39 +39 очень
душно
1011.6 1007.4 +31.5
21 16.01 СВ 2 30 км 6/6 600 м
[Cu Sc Ci sp]
+26.5 +23.4 83 +36 +36 очень
душно
1012.4 1008.2
00 17.01 В 2 30 км 5/4 600 м
[Cu Sc Ci sp]
+26.0 +23.1 84 +35 +35 очень
душно
1011.1 1006.9
03 17.01 ЮВ 4 30 км 8/6 600 м
[Cu Sc Ci sp]
+26.5 +24.5 89 +37 +37 очень
душно
1011.6 1007.4
06 17.01 З 2 30 км 4/4 600 м
[Cu Sc Ci sp]
+30.0 +24.3 72 +42 +49 опасность
перегрева
1013.1 1008.9
09 17.01 СЗ 3 30 км 5/4 600 м
[Cu Sc Ci sp]
+31.5 +26.8 76 +49 +59 опасность
перегрева
1011.1 1006.9
12 17.01 В 6 30 км {дождь} 6/3 600 м
[Cb cap Ac trans Ci sp]
+32.0 +24.3 64 +44 +47 опасность
перегрева
1008.8 1004.7
15 17.01 Ю 4 30 км 8/3 600 м
[Cu med, cong Ac trans Ci sp]
+30.4 +25.6 76 +45 +45 опасность
перегрева
1009.5 1005.3
18 17.01 ЮВ 2 30 км 4/1 600 м
[Cu Sc Ac trans Ci sp]
+27.6 +25.4 88 +40 +40 очень
душно
1011.1 1006.9 +33.1
21 17.01 штиль 0 30 км 3/1 600 м
[Cu Sc]
+27.4 +23.3 78 +37 +37 очень
душно
1011.7 1007.5
00 18.01 В 3 30 км 3/1 600 м
[Cu Sc]
+25.5 +21.1 77 +32 +32 очень
душно
1010.1 1005.9
03 18.01 В 2 30 км 5/1 600 м
[Cu Sc]
+26.0 +20.3 71 +32 +32 очень
душно
1010.9 1006.3
06 18.01 З 2 30 км 3/3 600 м
[Cu med, cong Ci sp]
+29.5 +25.2 78 +43 +51 опасность
перегрева
1012.5 1008.3 +24.6
09 18.01 СЗ 4 30 км 4/3 600 м
[Cu med, cong Ci sp]
+31.3 +27.6 81 +51 +60 опасность
перегрева
1012.0 1007.9
12 18.01 СЗ 4 30 км 4/4 600 м
[Cu Sc Ci sp]
+31.0 +25.5 73 +46 +51 опасность
перегрева
1010.5 1006.4
15 18.01 С 2 30 км 3/3 600 м
[Cu Sc]
+28.5 +25.0 81 +41 +41 опасность
перегрева
1009.1 1004.9
18 18.01 штиль 0 30 км 3/3 600 м
[Cu Sc Ci sp]
+27.5 +24.7 85 +39 +39 очень
душно
1010.6 1006.4 +32.0
21 18.01 штиль 0 30 км 1/1 600 м
[Cu med, cong Ci sp]
+25.5 +22.9 86 +34 +34 очень
душно
1011.2 1007.0
00 19.01 СВ 2 30 км 8/8 660 м
[Cu med, cong]
+25.2 +24.2 94 +35 +35 очень
душно
1010.9 1006.7
03 19.01 В 2 30 км 1/1 600 м
[Cu med, cong Ci sp]
+25.4 +24.6 95 +36 +36 очень
душно
1011.1 1006.9
06 19.01 СЗ 3 30 км 4/3 600 м
[Cu Sc As op]
+30.0 +27.6 87 +49 +55 опасность
перегрева
1013.2 1008.2 +24.7
09 19.01 СЗ 4 30 км 8/6 600 м
[Cu Sc Ci sp]
+30.0 +27.2 85 +48 +53 опасность
перегрева
1011.2 1007.1
12 19.01 СЗ 4 30 км 8/1 600 м
[Cu Sc Ci sp]
+31.7 +30.8 95 +61 +68 опасность
перегрева
1009.3 1005.2
15 19.01 СЗ 3 30 км 8/1 600 м
[Cu Sc Ci sp]
+30.4 +26.5 80 +47 +47 опасность
перегрева
1009.1 1005.0
18 19.01 С 2 30 км 4/1 600 м
[Cu Sc]
+28.5 +25.8 85 +42 +42 опасность
перегрева
1010.9 1006.7 +24.9
03 20.01 СВ 2 30 км 6/4 600 м
[Cu Sc Ac trans]
+25.5 +24.1 92 +35 +35 очень
душно
1011.2 1006.9
06 20.01 С 3 30 км 8/1 600 м
[Cu Sc Ci sp]
+29.5 +24.9 76 +42 +49 опасность
перегрева
1012.2 1008.1 +25.6
09 20.01 С 5 30 км 6/1 600 м
[Cu Sc Ci sp]
+30.8 +24.8 70 +44 +54 опасность
перегрева
1011.1 1006.9
12 20.01 С 2 30 км гроза без осадков 9/9 600 м
[Cb cap Ac lent]
+29.8 +26.0 80 +45 +46 опасность
перегрева
1009.7 1005.5
15 20.01 СЗ 6 30 км слаб. дождь {гроза} 9/9 600 м
[Cb cap Ac As]
+29.5 +25.5 79 +43 +43 опасность
перегрева
1009.7 1005.5
18 20.01 С 3 30 км слаб. дождь {гроза, морось} 10/10 600 м
[Cb cap Ac As]
+27.5 +25.4 88 +40 +40 очень
душно
1011.5 1007.3 +32.0
21 20.01 С 4 30 км 10/1 600 м
[Cu Sc As op]
+28.3 +25.1 83 +41 +41 опасность
перегрева
1011.6 1007.4
00 21.01 СЗ 3 30 км 10/1 600 м
[Cu Sc As op]
+28.0 +25.0 84 +40 +40 очень
душно
1011.0 1007.0
03 21.01 В 2 10 км дождь 10/3 600 м
[Cb cap As op]
+23.5 +18.4 73 +28 +28 душно 1011.7 1007.5
06 21.01 СЗ 4 30 км слаб. дождь 10/8 600 м
[Cb cap As op]
+26.0 +24.5 91 +36 +37 очень
душно
1013.3 1009.1 +23.0
09 21.01 СЗ 8 30 км 9/8 600 м
[Cb cap Ac As]
+27.8 +26.0 90 +42 +42 опасность
перегрева
1012.1 1007.9
12 21.01 СЗ 6 20 км {дождь} 10// 600 м
[Cu med, cong]
+28.8 +24.2 76 +40 +43 очень
душно
1010.1 1005.9 3
15 21.01 СЗ 4 20 км {ливн. осадки} 10/6 600 м
[Cb cap As op]
+28.0 +23.9 78 +39 +39 очень
душно
1009.6 1005.4
18 21.01 С 2 6000 м ливневой дождь 10/8 600 м
[Cb cap As op]
+24.5 +24.1 98 +34 +34 очень
душно
1012.0 1007.8 +29.0 25
21 21.01 СВ 1 6000 м 10/6 600 м
[Cu Sc As op]
+26.0 +24.0 89 +36 +36 очень
душно
1011.6 1007.4
00 22.01 СВ 3 30 км 9/8 600 м
[Cb cap As op]
+26.0 +24.5 91 +36 +36 очень
душно
1009.1 1004.9 11
03 22.01 С 4 30 км 10/9 600 м
[Cb cap As op]
+27.0 +25.4 91 +39 +39 очень
душно
1010.4 1006.2
06 22.01 С 5 30 км 10/3 600 м
[Cb cap As op]
+28.8 +24.9 79 +41 +42 опасность
перегрева
1011.6 1007.5 +24.0
09 22.01 С 7 20 км 10/8 600 м
[Cb cap As op]
+29.6 +24.6 75 +42 +42 опасность
перегрева
1011.9 1007.8

 

Местоположение метеостанции Морони (Коморские Острова): широта -11.53 долгота 43.27 высота над уровнем моря 29 м.

В архиве по умолчанию представлена погода в Морони за последнюю неделю. Архивные данные за месяц целиком и за предыдущие месяцы, начиная с января 2011 года, Вы можете получить, выбрав интересующий диапазон дат из раскрывающегося списка и нажав кнопку "Ввод!".


*Определитесь, кто Вы:
робот инопланетянин человек

Внимание! Время в таблицах - всемирное. Для получения местного времени необходимо прибавить поправку, которая равна 3 ч.

Смотрите также архив погоды в соседних городах и на ближайших метеорологических станциях:

Погода в Дзаудзи (Коморские Острова) (260 км)
Погода в Пембе (Мадагаскар) (339 км)
Погода в Мтваре (Танзания) (366 км)
Погода на Острове Глорьёз (Реюньон) (428 км)
Погода в Лумбо (Мозамбик) (480 км)
Погода в Монтепуезе (Мозамбик) (494 км)
Погода в Махадзанге (Мадагаскар) (567 км)
Погода в Аэропорту Fascene (Мадагаскар) (583 км)
Погода в Нампула (Мозамбик) (587 км)
Погода в Бесалампи (Мадагаскар) (595 км)

Пояснения к столбцам:

Ветер - указаны скорость ветра в м/с - средняя за 10 мин, порывы в срок и между сроками (в фигурных скобках) и направление, откуда дует ветер: С - северный, СВ - северо-восточный, В - восточный, ЮВ - юго-восточный, Ю - южный, ЮЗ - юго-западный, З - западный, СЗ - северо-западный.
Видимость - горизонтальная дальность видимости в метрах или километрах. При видимости от 1 до 10 км при отсутствии осадков обычно наблюдается дымка, при ухудшении видимости до 1 км и менее - туман. В сухую погоду видимость может ухудшаться дымом, пылью или мглою.
Явления - указаны атмосферные явления, наблюдавшиеся в срок или в последний час перед сроком; фигурными скобками обозначены явления, наблюдавшиеся между сроками (за 1-3 часа до срока); квадратными скобками обозначены град или гололедные отложения с указанием их диаметра в мм.
Облачность - указаны через наклонную черту общая и нижняя облачность в баллах и высота нижней границы облаков в метрах; квадратными скобками обозначены формы облаков: Ci - перистые, Cs - перисто-слоистые, Cc - перисто-кучевые, Ac - высококучевые, As - высокослоистые, Sc - слоисто-кучевые, Ns - слоисто-дождевые, Cu - кучевые, Cb - кучево-дождевые. Подробнее классификацию облаков см. в Атласе облаков (PDF).
T - Температура воздуха - температура, измеренная на высоте 2 м над землей.
Td - Температура точки росы - температура, при понижении до которой содержащийся в воздухе водяной пар достигнет насыщения.
f - Относительная влажность воздуха - влажноcть воздуха, измеренная на высоте 2 м над землей.
Te - Эффективная температура - температура, которую ощущает одетый по сезону человек в тени. Характеристика душности погоды. При расчете учитывается влияние влажности воздуха и скорости ветра на теплоощущения человека.
Tes - Эффективная температура на солнце - температура, которую ощущает человек, с поправкой на солнечный нагрев. Характеристика знойности погоды. Зависит от высоты солнца над горизонтом, облачности и скорости ветра. Ночью, в пасмурную погоду, а также при ветре 12 м/с и более поправка равна нулю.
P - Атмосферное давление - приведенное к уровню моря атмосферное давление.
Po - Атмосферное давление - измеренное на уровне метеостанции атмосферное давление.
Tmin - Минимальная температура - минимум температуры воздуха на высоте 2 м над землей.
Tmax - Максимальная температура - максимум температуры воздуха на высоте 2 м над землей.
R - Количество осадков - Количество выпавших осадков за период времени, мм. При наведении курсора мыши на число - период времени, за который выпало указанное количество осадков.
R24 - Количество осадков - Количество выпавших осадков за 24 часа, мм.
S - Снежный покров - Высота снежного покрова, см. При наведении курсора мыши на число - состояние снежного покрова и степень покрытия местности в баллах.